Вернуться в каталог

COSMOS 1035

АктивенВоенныеLEO
NORAD 11044·PAYLOAD·🇷🇺 Russia

Запущен Oct 4, 1978 с Plesetsk Cosmodrome

Loading…

Ближайшие Пролёты (ближайшие 24 часа)

TLE

СвежийSource: Space-Track

Эпоха: Sep 14, 2026, 03:52 UTC

1 11044U 78091B   26257.16114302 -.00000002  00000-0  81806-4 0  9995
2 11044  74.0386 331.3692 0048430 127.3385 256.8647 12.55707597197794

Отслеживайте COSMOS 1035 в реальном времени с AllMySat

Download on the App Store